Year,Month,Day,Hour,Minute,Value (Times are PST for temperature in C)
2019,07,20,00,00,14.20
2019,07,20,00,01,14.20
2019,07,20,00,02,14.20
2019,07,20,00,03,14.20
2019,07,20,00,04,14.10
2019,07,20,00,05,14.10
2019,07,20,00,06,14.10
2019,07,20,00,07,14.10
2019,07,20,00,08,14.10
2019,07,20,00,09,14.00
2019,07,20,00,10,14.00
2019,07,20,00,11,14.00
2019,07,20,00,12,14.00
2019,07,20,00,13,14.00
2019,07,20,00,14,14.00
2019,07,20,00,15,14.00
2019,07,20,00,16,14.00
2019,07,20,00,17,14.00
2019,07,20,00,18,14.00
2019,07,20,00,19,14.00
2019,07,20,00,20,14.00
2019,07,20,00,21,14.00
2019,07,20,00,22,14.00
2019,07,20,00,23,13.90
2019,07,20,00,24,13.90
2019,07,20,00,25,13.90
2019,07,20,00,26,13.90
2019,07,20,00,27,13.90
2019,07,20,00,28,13.90
2019,07,20,00,29,13.90
2019,07,20,00,30,13.80
2019,07,20,00,31,13.80
2019,07,20,00,32,13.80
2019,07,20,00,33,13.80
2019,07,20,00,34,13.80
2019,07,20,00,35,13.80
2019,07,20,00,36,13.80
2019,07,20,00,37,13.80
2019,07,20,00,38,13.80
2019,07,20,00,39,13.80
2019,07,20,00,40,13.80
2019,07,20,00,41,13.70
2019,07,20,00,42,13.70
2019,07,20,00,43,13.70
2019,07,20,00,44,13.70
2019,07,20,00,45,13.70
2019,07,20,00,46,13.70
2019,07,20,00,47,13.70
2019,07,20,00,48,13.70
2019,07,20,00,49,13.60
2019,07,20,00,50,13.60
2019,07,20,00,51,13.60
2019,07,20,00,52,13.50
2019,07,20,00,53,13.50
2019,07,20,00,54,13.50
2019,07,20,00,55,13.40
2019,07,20,00,56,13.40
2019,07,20,00,57,13.40
2019,07,20,00,58,13.40
2019,07,20,00,59,13.30
2019,07,20,01,00,13.30
2019,07,20,01,01,13.30
2019,07,20,01,02,13.30
2019,07,20,01,03,13.30
2019,07,20,01,04,13.30
2019,07,20,01,05,13.30
2019,07,20,01,06,13.20
2019,07,20,01,07,13.20
2019,07,20,01,08,13.20
2019,07,20,01,09,13.20
2019,07,20,01,10,13.20
2019,07,20,01,11,13.20
2019,07,20,01,12,13.10
2019,07,20,01,13,13.10
2019,07,20,01,14,13.10
2019,07,20,01,15,13.10
2019,07,20,01,16,13.20
2019,07,20,01,17,13.20
2019,07,20,01,18,13.20
2019,07,20,01,19,13.20
2019,07,20,01,20,13.20
2019,07,20,01,21,13.20
2019,07,20,01,22,13.10
2019,07,20,01,23,13.10
2019,07,20,01,24,13.10
2019,07,20,01,25,13.10
2019,07,20,01,26,13.10
2019,07,20,01,27,13.10
2019,07,20,01,28,13.10
2019,07,20,01,29,13.10
2019,07,20,01,30,13.10
2019,07,20,01,31,13.10
2019,07,20,01,32,13.10
2019,07,20,01,33,13.10
2019,07,20,01,34,13.10
2019,07,20,01,35,13.10
2019,07,20,01,36,13.10
2019,07,20,01,37,13.10
2019,07,20,01,38,13.00
2019,07,20,01,39,13.00
2019,07,20,01,40,13.00
2019,07,20,01,41,13.00
2019,07,20,01,42,13.00
2019,07,20,01,43,13.00
2019,07,20,01,44,13.00
2019,07,20,01,45,13.00
2019,07,20,01,46,13.00
2019,07,20,01,47,13.00
2019,07,20,01,48,13.10
2019,07,20,01,49,13.10
2019,07,20,01,50,13.10
2019,07,20,01,51,13.10
2019,07,20,01,52,13.10
2019,07,20,01,53,13.10
2019,07,20,01,54,13.10
2019,07,20,01,55,13.10
2019,07,20,01,56,13.10
2019,07,20,01,57,13.10
2019,07,20,01,58,13.10
2019,07,20,01,59,13.00
2019,07,20,02,00,13.00
2019,07,20,02,01,13.00
2019,07,20,02,02,12.90
2019,07,20,02,03,12.90
2019,07,20,02,04,12.90
2019,07,20,02,05,12.90
2019,07,20,02,06,12.90
2019,07,20,02,07,12.90
2019,07,20,02,08,12.90
2019,07,20,02,09,12.90
2019,07,20,02,10,12.90
2019,07,20,02,11,12.90
2019,07,20,02,12,12.90
2019,07,20,02,13,12.90
2019,07,20,02,14,12.90
2019,07,20,02,15,12.90
2019,07,20,02,16,12.90
2019,07,20,02,17,12.90
2019,07,20,02,18,12.90
2019,07,20,02,19,12.90
2019,07,20,02,20,12.90
2019,07,20,02,21,12.90
2019,07,20,02,22,12.90
2019,07,20,02,23,12.90
2019,07,20,02,24,12.90
2019,07,20,02,25,12.90
2019,07,20,02,26,12.90
2019,07,20,02,27,12.80
2019,07,20,02,28,12.80
2019,07,20,02,29,12.80
2019,07,20,02,30,12.80
2019,07,20,02,31,12.80
2019,07,20,02,32,12.80
2019,07,20,02,33,12.80
2019,07,20,02,34,12.80
2019,07,20,02,35,12.80
2019,07,20,02,36,12.80
2019,07,20,02,37,12.70
2019,07,20,02,38,12.70
2019,07,20,02,39,12.70
2019,07,20,02,40,12.70
2019,07,20,02,41,12.70
2019,07,20,02,42,12.70
2019,07,20,02,43,12.70
2019,07,20,02,44,12.70
2019,07,20,02,45,12.70
2019,07,20,02,46,12.70
2019,07,20,02,47,12.60
2019,07,20,02,48,12.60
2019,07,20,02,49,12.60
2019,07,20,02,50,12.60
2019,07,20,02,51,12.60
2019,07,20,02,52,12.60
2019,07,20,02,53,12.60
2019,07,20,02,54,12.60
2019,07,20,02,55,12.60
2019,07,20,02,56,12.60
2019,07,20,02,57,12.50
2019,07,20,02,58,12.50
2019,07,20,02,59,12.50
2019,07,20,03,00,12.60
2019,07,20,03,01,12.60
2019,07,20,03,02,12.60
2019,07,20,03,03,12.60
2019,07,20,03,04,12.60
2019,07,20,03,05,12.60
2019,07,20,03,06,12.60
2019,07,20,03,07,12.60
2019,07,20,03,08,12.60
2019,07,20,03,09,12.60
2019,07,20,03,10,12.60
2019,07,20,03,11,12.60
2019,07,20,03,12,12.60
2019,07,20,03,13,12.50
2019,07,20,03,14,12.60
2019,07,20,03,15,12.60
2019,07,20,03,16,12.60
2019,07,20,03,17,12.60
2019,07,20,03,18,12.70
2019,07,20,03,19,12.70
2019,07,20,03,20,12.70
2019,07,20,03,21,12.70
2019,07,20,03,22,12.70
2019,07,20,03,23,12.70
2019,07,20,03,24,12.70
2019,07,20,03,25,12.70
2019,07,20,03,26,12.70
2019,07,20,03,27,12.70
2019,07,20,03,28,12.70
2019,07,20,03,29,12.70
2019,07,20,03,30,12.70
2019,07,20,03,31,12.80
2019,07,20,03,32,12.80
2019,07,20,03,33,12.90
2019,07,20,03,34,12.90
2019,07,20,03,35,12.90
2019,07,20,03,36,13.00
2019,07,20,03,37,13.00
2019,07,20,03,38,13.10
2019,07,20,03,39,13.10
2019,07,20,03,40,13.10
2019,07,20,03,41,13.10
2019,07,20,03,42,13.10
2019,07,20,03,43,13.20
2019,07,20,03,44,13.20
2019,07,20,03,45,13.20
2019,07,20,03,46,13.20
2019,07,20,03,47,13.20
2019,07,20,03,48,13.30
2019,07,20,03,49,13.30
2019,07,20,03,50,13.30
2019,07,20,03,51,13.30
2019,07,20,03,52,13.30
2019,07,20,03,53,13.30
2019,07,20,03,54,13.40
2019,07,20,03,55,13.40
2019,07,20,03,56,13.40
2019,07,20,03,57,13.40
2019,07,20,03,58,13.40
2019,07,20,03,59,13.50
2019,07,20,04,00,13.50
2019,07,20,04,01,13.60
2019,07,20,04,02,13.60
2019,07,20,04,03,13.60
2019,07,20,04,04,13.60
2019,07,20,04,05,13.70
2019,07,20,04,06,13.70
2019,07,20,04,07,13.70
2019,07,20,04,08,13.70
2019,07,20,04,09,13.70
2019,07,20,04,10,13.80
2019,07,20,04,11,13.80
2019,07,20,04,12,13.90
2019,07,20,04,13,14.00
2019,07,20,04,14,14.10
2019,07,20,04,15,14.20
2019,07,20,04,16,14.30
2019,07,20,04,17,14.50
2019,07,20,04,18,14.60
2019,07,20,04,19,14.80
2019,07,20,04,20,14.90
2019,07,20,04,21,15.00
2019,07,20,04,22,15.10
2019,07,20,04,23,15.20
2019,07,20,04,24,15.30
2019,07,20,04,25,15.40
2019,07,20,04,26,15.50
2019,07,20,04,27,15.60
2019,07,20,04,28,15.60
2019,07,20,04,29,15.60
2019,07,20,04,30,15.70
2019,07,20,04,31,15.70
2019,07,20,04,32,15.70
2019,07,20,04,33,15.70
2019,07,20,04,34,15.70
2019,07,20,04,35,15.70
2019,07,20,04,36,15.70
2019,07,20,04,37,15.70
2019,07,20,04,38,15.70
2019,07,20,04,39,15.70
2019,07,20,04,40,15.70
2019,07,20,04,41,15.80
2019,07,20,04,42,15.80
2019,07,20,04,43,15.80
2019,07,20,04,44,15.80
2019,07,20,04,45,15.80
2019,07,20,04,46,15.80
2019,07,20,04,47,15.80
2019,07,20,04,48,15.80
2019,07,20,04,49,15.80
2019,07,20,04,50,15.80
2019,07,20,04,51,15.80
2019,07,20,04,52,15.80
2019,07,20,04,53,15.80
2019,07,20,04,54,15.80
2019,07,20,04,55,15.80
2019,07,20,04,56,15.80
2019,07,20,04,57,15.80
2019,07,20,04,58,15.80
2019,07,20,04,59,15.80
2019,07,20,05,00,15.80
2019,07,20,05,01,15.80
2019,07,20,05,02,15.80
2019,07,20,05,03,15.70
2019,07,20,05,04,15.70
2019,07,20,05,05,15.70
2019,07,20,05,06,15.70
2019,07,20,05,07,15.70
2019,07,20,05,08,15.70
2019,07,20,05,09,15.70
2019,07,20,05,10,15.70
2019,07,20,05,11,15.70
2019,07,20,05,12,15.70
2019,07,20,05,13,15.70
2019,07,20,05,14,15.70
2019,07,20,05,15,15.70
2019,07,20,05,16,15.70
2019,07,20,05,17,15.70
2019,07,20,05,18,15.70
2019,07,20,05,19,15.70
2019,07,20,05,20,15.70
2019,07,20,05,21,15.70
2019,07,20,05,22,15.70
2019,07,20,05,23,15.70
2019,07,20,05,24,15.70
2019,07,20,05,25,15.70
2019,07,20,05,26,15.60
2019,07,20,05,27,15.60
2019,07,20,05,28,15.60
2019,07,20,05,29,15.60
2019,07,20,05,30,15.60
2019,07,20,05,31,15.60
2019,07,20,05,32,15.60
2019,07,20,05,33,15.60
2019,07,20,05,34,15.50
2019,07,20,05,35,15.60
2019,07,20,05,36,15.50
2019,07,20,05,37,15.60
2019,07,20,05,38,15.60
2019,07,20,05,39,15.50
2019,07,20,05,40,15.60
2019,07,20,05,41,15.60
2019,07,20,05,42,15.50
2019,07,20,05,43,15.50
2019,07,20,05,44,15.50
2019,07,20,05,45,15.50
2019,07,20,05,46,15.40
2019,07,20,05,47,15.40
2019,07,20,05,48,15.40
2019,07,20,05,49,15.40
2019,07,20,05,50,15.40
2019,07,20,05,51,15.40
2019,07,20,05,52,15.40
2019,07,20,05,53,15.40
2019,07,20,05,54,15.40
2019,07,20,05,55,15.40
2019,07,20,05,56,15.40
2019,07,20,05,57,15.40
2019,07,20,05,58,15.40
2019,07,20,05,59,15.40
2019,07,20,06,00,15.40
2019,07,20,06,01,15.40
2019,07,20,06,02,15.30
2019,07,20,06,03,15.30
2019,07,20,06,04,15.30
2019,07,20,06,05,15.30
2019,07,20,06,06,15.30
2019,07,20,06,07,15.30
2019,07,20,06,08,15.40
2019,07,20,06,09,15.40
2019,07,20,06,10,15.40
2019,07,20,06,11,15.30
2019,07,20,06,12,15.30
2019,07,20,06,13,15.40
2019,07,20,06,14,15.40
2019,07,20,06,15,15.40
2019,07,20,06,16,15.40
2019,07,20,06,17,15.40
2019,07,20,06,18,15.40
2019,07,20,06,19,15.50
2019,07,20,06,20,15.50
2019,07,20,06,21,15.50
2019,07,20,06,22,15.50
2019,07,20,06,23,15.60
2019,07,20,06,24,15.60
2019,07,20,06,25,15.60
2019,07,20,06,26,15.60
2019,07,20,06,27,15.60
2019,07,20,06,28,15.60
2019,07,20,06,29,15.60
2019,07,20,06,30,15.60
2019,07,20,06,31,15.60
2019,07,20,06,32,15.60
2019,07,20,06,33,15.60
2019,07,20,06,34,15.60
2019,07,20,06,35,15.60
2019,07,20,06,36,15.60
2019,07,20,06,37,15.60
2019,07,20,06,38,15.60
2019,07,20,06,39,15.70
2019,07,20,06,40,15.70
2019,07,20,06,41,15.70
2019,07,20,06,42,15.70
2019,07,20,06,43,15.70
2019,07,20,06,44,15.70
2019,07,20,06,45,15.70
2019,07,20,06,46,15.80
2019,07,20,06,47,15.80
2019,07,20,06,48,15.80
2019,07,20,06,49,15.80
2019,07,20,06,50,15.80
2019,07,20,06,51,15.80
2019,07,20,06,52,15.80
2019,07,20,06,53,15.80
2019,07,20,06,54,15.90
2019,07,20,06,55,15.90
2019,07,20,06,56,15.90
2019,07,20,06,57,15.90
2019,07,20,06,58,16.00
2019,07,20,06,59,16.00
2019,07,20,07,00,16.10
2019,07,20,07,01,16.10
2019,07,20,07,02,16.20
2019,07,20,07,03,16.20
2019,07,20,07,04,16.20
2019,07,20,07,05,16.20
2019,07,20,07,06,16.30
2019,07,20,07,07,16.30
2019,07,20,07,08,16.30
2019,07,20,07,09,16.30
2019,07,20,07,10,16.30
2019,07,20,07,11,16.30
2019,07,20,07,12,16.30
2019,07,20,07,13,16.40
2019,07,20,07,14,16.40
2019,07,20,07,15,16.40
2019,07,20,07,16,16.40
2019,07,20,07,17,16.40
2019,07,20,07,18,16.40
2019,07,20,07,19,16.50
2019,07,20,07,20,16.50
2019,07,20,07,21,16.50
2019,07,20,07,22,16.50
2019,07,20,07,23,16.50
2019,07,20,07,24,16.50
2019,07,20,07,25,16.60
2019,07,20,07,26,16.60
2019,07,20,07,27,16.60
2019,07,20,07,28,16.60
2019,07,20,07,29,16.60
2019,07,20,07,30,16.60
2019,07,20,07,31,16.60
2019,07,20,07,32,16.60
2019,07,20,07,33,16.60
2019,07,20,07,34,16.70
2019,07,20,07,35,16.60
2019,07,20,07,36,16.60
2019,07,20,07,37,16.60
2019,07,20,07,38,16.70
2019,07,20,07,39,16.60
2019,07,20,07,40,16.60
2019,07,20,07,41,16.60
2019,07,20,07,42,16.60
2019,07,20,07,43,16.60
2019,07,20,07,44,16.60
2019,07,20,07,45,16.60
2019,07,20,07,46,16.70
2019,07,20,07,47,16.70
2019,07,20,07,48,16.70
2019,07,20,07,49,16.70
2019,07,20,07,50,16.70
2019,07,20,07,51,16.70
2019,07,20,07,52,16.70
2019,07,20,07,53,16.70
2019,07,20,07,54,16.70
2019,07,20,07,55,16.70
2019,07,20,07,56,16.70
2019,07,20,07,57,16.70
2019,07,20,07,58,16.80
2019,07,20,07,59,16.80
2019,07,20,08,00,16.80
2019,07,20,08,01,16.80
2019,07,20,08,02,16.80
2019,07,20,08,03,16.80
2019,07,20,08,04,16.80
2019,07,20,08,05,16.80
2019,07,20,08,06,16.90
2019,07,20,08,07,16.90
2019,07,20,08,08,16.90
2019,07,20,08,09,16.90
2019,07,20,08,10,16.90
2019,07,20,08,11,17.00
2019,07,20,08,12,17.00
2019,07,20,08,13,17.00
2019,07,20,08,14,17.10
2019,07,20,08,15,17.10
2019,07,20,08,16,17.10
2019,07,20,08,17,17.10
2019,07,20,08,18,17.10
2019,07,20,08,19,17.10
2019,07,20,08,20,17.10
2019,07,20,08,21,17.10
2019,07,20,08,22,17.10
2019,07,20,08,23,17.10
2019,07,20,08,24,17.10
2019,07,20,08,25,17.10
2019,07,20,08,26,17.10
2019,07,20,08,27,17.10
2019,07,20,08,28,17.10
2019,07,20,08,29,17.10
2019,07,20,08,30,17.10
2019,07,20,08,31,17.10
2019,07,20,08,32,17.10
2019,07,20,08,33,17.10
2019,07,20,08,34,17.20
2019,07,20,08,35,17.20
2019,07,20,08,36,17.20
2019,07,20,08,37,17.30
2019,07,20,08,38,17.30
2019,07,20,08,39,17.30
2019,07,20,08,40,17.30
2019,07,20,08,41,17.30
2019,07,20,08,42,17.40
2019,07,20,08,43,17.40
2019,07,20,08,44,17.40
2019,07,20,08,45,17.40
2019,07,20,08,46,17.50
2019,07,20,08,47,17.50
2019,07,20,08,48,17.50
2019,07,20,08,49,17.50
2019,07,20,08,50,17.60
2019,07,20,08,51,17.50
2019,07,20,08,52,17.50
2019,07,20,08,53,17.50
2019,07,20,08,54,17.50
2019,07,20,08,55,17.50
2019,07,20,08,56,17.40
2019,07,20,08,57,17.40
2019,07,20,08,58,17.50
2019,07,20,08,59,17.50
2019,07,20,09,00,17.50
2019,07,20,09,01,17.60
2019,07,20,09,02,17.60
2019,07,20,09,03,17.60
2019,07,20,09,04,17.60
2019,07,20,09,05,17.60
2019,07,20,09,06,17.60
2019,07,20,09,07,17.60
2019,07,20,09,08,17.60
2019,07,20,09,09,17.60
2019,07,20,09,10,17.70
2019,07,20,09,11,17.70
2019,07,20,09,12,17.80
2019,07,20,09,13,17.80
2019,07,20,09,14,17.80
2019,07,20,09,15,17.80
2019,07,20,09,16,17.80
2019,07,20,09,17,17.90
2019,07,20,09,18,17.90
2019,07,20,09,19,18.00
2019,07,20,09,20,18.10
2019,07,20,09,21,18.10
2019,07,20,09,22,18.10
2019,07,20,09,23,18.10
2019,07,20,09,24,18.10
2019,07,20,09,25,18.10
2019,07,20,09,26,18.10
2019,07,20,09,27,18.10
2019,07,20,09,28,18.20
2019,07,20,09,29,18.20
2019,07,20,09,30,18.30
2019,07,20,09,31,18.30
2019,07,20,09,32,18.40
2019,07,20,09,33,18.40
2019,07,20,09,34,18.50
2019,07,20,09,35,18.50
2019,07,20,09,36,18.50
2019,07,20,09,37,18.50
2019,07,20,09,38,18.50
2019,07,20,09,39,18.50
2019,07,20,09,40,18.40
2019,07,20,09,41,18.50
2019,07,20,09,42,18.50
2019,07,20,09,43,18.50
2019,07,20,09,44,18.60
2019,07,20,09,45,18.60
2019,07,20,09,46,18.60
2019,07,20,09,47,18.50
2019,07,20,09,48,18.50
2019,07,20,09,49,18.50
2019,07,20,09,50,18.50
2019,07,20,09,51,18.40
2019,07,20,09,52,18.50
2019,07,20,09,53,18.50
2019,07,20,09,54,18.50
2019,07,20,09,55,18.40
2019,07,20,09,56,18.40
2019,07,20,09,57,18.40
2019,07,20,09,58,18.40
2019,07,20,09,59,18.40
2019,07,20,10,00,18.40
2019,07,20,10,01,18.40
2019,07,20,10,02,18.40
2019,07,20,10,03,18.40
2019,07,20,10,04,18.40
2019,07,20,10,05,18.30
2019,07,20,10,06,18.30
2019,07,20,10,07,18.30
2019,07,20,10,08,18.40
2019,07,20,10,09,18.40
2019,07,20,10,10,18.40
2019,07,20,10,11,18.50
2019,07,20,10,12,18.50
2019,07,20,10,13,18.40
2019,07,20,10,14,18.50
2019,07,20,10,15,18.50
2019,07,20,10,16,18.60
2019,07,20,10,17,18.70
2019,07,20,10,18,18.70
2019,07,20,10,19,18.70
2019,07,20,10,20,18.70
2019,07,20,10,21,18.70
2019,07,20,10,22,18.70
2019,07,20,10,23,18.70
2019,07,20,10,24,18.70
2019,07,20,10,25,18.70
2019,07,20,10,26,18.70
2019,07,20,10,27,18.80
2019,07,20,10,28,18.80
2019,07,20,10,29,18.80
2019,07,20,10,30,18.80
2019,07,20,10,31,18.80
2019,07,20,10,32,18.80
2019,07,20,10,33,18.80
2019,07,20,10,34,18.80
2019,07,20,10,35,18.90
2019,07,20,10,36,18.90
2019,07,20,10,37,19.00
2019,07,20,10,38,19.10
2019,07,20,10,39,19.10
2019,07,20,10,40,19.20
2019,07,20,10,41,19.20
2019,07,20,10,42,19.20
2019,07,20,10,43,19.20
2019,07,20,10,44,19.20
2019,07,20,10,45,19.20
2019,07,20,10,46,19.10
2019,07,20,10,47,19.00
2019,07,20,10,48,19.00
2019,07,20,10,49,18.90
2019,07,20,10,50,18.90
2019,07,20,10,51,18.80
2019,07,20,10,52,18.90
2019,07,20,10,53,18.90
2019,07,20,10,54,18.90
2019,07,20,10,55,19.00
2019,07,20,10,56,19.00
2019,07,20,10,57,19.10
2019,07,20,10,58,19.10
2019,07,20,10,59,19.10
2019,07,20,11,00,19.10
2019,07,20,11,01,19.20
2019,07,20,11,02,19.20
2019,07,20,11,03,19.20
2019,07,20,11,04,19.20
2019,07,20,11,05,19.30
2019,07,20,11,06,19.20
2019,07,20,11,07,19.30
2019,07,20,11,08,19.20
2019,07,20,11,09,19.20
2019,07,20,11,10,19.20
2019,07,20,11,11,19.20
2019,07,20,11,12,19.20
2019,07,20,11,13,19.20
2019,07,20,11,14,19.20
2019,07,20,11,15,19.20
2019,07,20,11,16,19.30
2019,07,20,11,17,19.30
2019,07,20,11,18,19.40
2019,07,20,11,19,19.40
2019,07,20,11,20,19.40
2019,07,20,11,21,19.40
2019,07,20,11,22,19.40
2019,07,20,11,23,19.40
2019,07,20,11,24,19.40
2019,07,20,11,25,19.50
2019,07,20,11,26,19.50
2019,07,20,11,27,19.60
2019,07,20,11,28,19.60
2019,07,20,11,29,19.50
2019,07,20,11,30,19.50
2019,07,20,11,31,19.40
2019,07,20,11,32,19.40
2019,07,20,11,33,19.40
2019,07,20,11,34,19.40
2019,07,20,11,35,19.40
2019,07,20,11,36,19.50
2019,07,20,11,37,19.60
2019,07,20,11,38,19.60
2019,07,20,11,39,19.70
2019,07,20,11,40,19.70
2019,07,20,11,41,19.80
2019,07,20,11,42,19.80
2019,07,20,11,43,19.80
2019,07,20,11,44,19.80
2019,07,20,11,45,19.80
2019,07,20,11,46,19.70
2019,07,20,11,47,19.70
2019,07,20,11,48,19.60
2019,07,20,11,49,19.60
2019,07,20,11,50,19.60
2019,07,20,11,51,19.70
2019,07,20,11,52,19.70
2019,07,20,11,53,19.70
2019,07,20,11,54,19.70
2019,07,20,11,55,19.70
2019,07,20,11,56,19.70
2019,07,20,11,57,19.70
2019,07,20,11,58,19.70
2019,07,20,11,59,19.80
2019,07,20,12,00,19.90
2019,07,20,12,01,19.90
2019,07,20,12,02,19.90
2019,07,20,12,03,19.90
2019,07,20,12,04,19.90
2019,07,20,12,05,19.90
2019,07,20,12,06,19.90
2019,07,20,12,07,19.90
2019,07,20,12,08,19.90
2019,07,20,12,09,20.00
2019,07,20,12,10,20.10
2019,07,20,12,11,20.20
2019,07,20,12,12,20.20
2019,07,20,12,13,20.30
2019,07,20,12,14,20.30
2019,07,20,12,15,20.40
2019,07,20,12,16,20.40
2019,07,20,12,17,20.40
2019,07,20,12,18,20.50
2019,07,20,12,19,20.60
2019,07,20,12,20,20.60
2019,07,20,12,21,20.60
2019,07,20,12,22,20.60
2019,07,20,12,23,20.50
2019,07,20,12,24,20.50
2019,07,20,12,25,20.60
2019,07,20,12,26,20.60
2019,07,20,12,27,20.60
2019,07,20,12,28,20.60
2019,07,20,12,29,20.70
2019,07,20,12,30,20.70
2019,07,20,12,31,20.80
2019,07,20,12,32,20.80
2019,07,20,12,33,20.80
2019,07,20,12,34,20.90
2019,07,20,12,35,20.80
2019,07,20,12,36,20.80
2019,07,20,12,37,20.70
2019,07,20,12,38,20.70
2019,07,20,12,39,20.70
2019,07,20,12,40,20.80
2019,07,20,12,41,20.80
2019,07,20,12,42,20.90
2019,07,20,12,43,20.90
2019,07,20,12,44,20.90
2019,07,20,12,45,20.90
2019,07,20,12,46,20.90
2019,07,20,12,47,20.90
2019,07,20,12,48,20.90
2019,07,20,12,49,20.90
2019,07,20,12,50,20.90
2019,07,20,12,51,21.00
2019,07,20,12,52,21.00
2019,07,20,12,53,20.90
2019,07,20,12,54,21.00
2019,07,20,12,55,21.10
2019,07,20,12,56,21.10
2019,07,20,12,57,21.00
2019,07,20,12,58,21.00
2019,07,20,12,59,20.90
2019,07,20,13,00,20.90
2019,07,20,13,01,20.80
2019,07,20,13,02,20.90
2019,07,20,13,03,20.90
2019,07,20,13,04,20.90
2019,07,20,13,05,20.90
2019,07,20,13,06,20.80
2019,07,20,13,07,20.80
2019,07,20,13,08,20.80
2019,07,20,13,09,20.80
2019,07,20,13,10,20.80
2019,07,20,13,11,20.80
2019,07,20,13,12,20.80
2019,07,20,13,13,20.90
2019,07,20,13,14,21.00
2019,07,20,13,15,21.10
2019,07,20,13,16,21.10
2019,07,20,13,17,21.10
2019,07,20,13,18,21.20
2019,07,20,13,19,21.20
2019,07,20,13,20,21.30
2019,07,20,13,21,21.30
2019,07,20,13,22,21.20
2019,07,20,13,23,21.10
2019,07,20,13,24,21.10
2019,07,20,13,25,21.20
2019,07,20,13,26,21.20
2019,07,20,13,27,21.20
2019,07,20,13,28,21.30
2019,07,20,13,29,21.40
2019,07,20,13,30,21.40
2019,07,20,13,31,21.40
2019,07,20,13,32,21.40
2019,07,20,13,33,21.40
2019,07,20,13,34,21.40
2019,07,20,13,35,21.30
2019,07,20,13,36,21.30
2019,07,20,13,37,21.30
2019,07,20,13,38,21.40
2019,07,20,13,39,21.50
2019,07,20,13,40,21.60
2019,07,20,13,41,21.60
2019,07,20,13,42,21.60
2019,07,20,13,43,21.70
2019,07,20,13,44,21.70
2019,07,20,13,45,21.70
2019,07,20,13,46,21.70
2019,07,20,13,47,21.50
2019,07,20,13,48,21.50
2019,07,20,13,49,21.40
2019,07,20,13,50,21.40
2019,07,20,13,51,21.40
2019,07,20,13,52,21.40
2019,07,20,13,53,21.40
2019,07,20,13,54,21.50
2019,07,20,13,55,21.50
2019,07,20,13,56,21.50
2019,07,20,13,57,21.50
2019,07,20,13,58,21.50
2019,07,20,13,59,21.60
2019,07,20,14,00,21.70
2019,07,20,14,01,21.70
2019,07,20,14,02,21.80
2019,07,20,14,03,21.80
2019,07,20,14,04,21.80
2019,07,20,14,05,21.80
2019,07,20,14,06,21.80
2019,07,20,14,07,21.80
2019,07,20,14,08,21.70
2019,07,20,14,09,21.70
2019,07,20,14,10,21.70
2019,07,20,14,11,21.70
2019,07,20,14,12,21.80
2019,07,20,14,13,21.90
2019,07,20,14,14,22.00
2019,07,20,14,15,22.10
2019,07,20,14,16,22.20
2019,07,20,14,17,22.30
2019,07,20,14,18,22.40
2019,07,20,14,19,22.40
2019,07,20,14,20,22.50
2019,07,20,14,21,22.40
2019,07,20,14,22,22.30
2019,07,20,14,23,22.20
2019,07,20,14,24,22.20
2019,07,20,14,25,22.10
2019,07,20,14,26,22.10
2019,07,20,14,27,22.00
2019,07,20,14,28,22.00
2019,07,20,14,29,21.90
2019,07,20,14,30,21.90
2019,07,20,14,31,21.90
2019,07,20,14,32,22.00
2019,07,20,14,33,22.00
2019,07,20,14,34,22.10
2019,07,20,14,35,22.20
2019,07,20,14,36,22.30
2019,07,20,14,37,22.50
2019,07,20,14,38,22.60
2019,07,20,14,39,22.70
2019,07,20,14,40,22.80
2019,07,20,14,41,22.80
2019,07,20,14,42,22.80
2019,07,20,14,43,22.80
2019,07,20,14,44,22.70
2019,07,20,14,45,22.60
2019,07,20,14,46,22.60
2019,07,20,14,47,22.60
2019,07,20,14,48,22.60
2019,07,20,14,49,22.60
2019,07,20,14,50,22.70
2019,07,20,14,51,22.70
2019,07,20,14,52,22.80
2019,07,20,14,53,22.80
2019,07,20,14,54,22.80
2019,07,20,14,55,22.80
2019,07,20,14,56,22.80
2019,07,20,14,57,22.80
2019,07,20,14,58,22.80
2019,07,20,14,59,22.70
2019,07,20,15,00,22.70
2019,07,20,15,01,22.70
2019,07,20,15,02,22.70
2019,07,20,15,03,22.70
2019,07,20,15,04,22.70
2019,07,20,15,05,22.80
2019,07,20,15,06,22.80
2019,07,20,15,07,22.90
2019,07,20,15,08,23.00
2019,07,20,15,09,23.00
2019,07,20,15,10,23.00
2019,07,20,15,11,23.00
2019,07,20,15,12,23.00
2019,07,20,15,13,23.00
2019,07,20,15,14,23.10
2019,07,20,15,15,23.10
2019,07,20,15,16,23.20
2019,07,20,15,17,23.20
2019,07,20,15,18,23.20
2019,07,20,15,19,23.30
2019,07,20,15,20,23.30
2019,07,20,15,21,23.30
2019,07,20,15,22,23.40
2019,07,20,15,23,23.40
2019,07,20,15,24,23.40
2019,07,20,15,25,23.40
2019,07,20,15,26,23.50
2019,07,20,15,27,23.50
2019,07,20,15,28,23.60
2019,07,20,15,29,23.60
2019,07,20,15,30,23.60
2019,07,20,15,31,23.70
2019,07,20,15,32,23.70
2019,07,20,15,33,23.80
2019,07,20,15,34,23.90
2019,07,20,15,35,23.90
2019,07,20,15,36,24.00
2019,07,20,15,37,24.00
2019,07,20,15,38,24.00
2019,07,20,15,39,23.90
2019,07,20,15,40,23.80
2019,07,20,15,41,23.70
2019,07,20,15,42,23.60
2019,07,20,15,43,23.60
2019,07,20,15,44,23.60
2019,07,20,15,45,23.70
2019,07,20,15,46,23.70
2019,07,20,15,47,23.80
2019,07,20,15,48,23.80
2019,07,20,15,49,23.80
2019,07,20,15,50,23.80
2019,07,20,15,51,23.80
2019,07,20,15,52,23.70
2019,07,20,15,53,23.80
2019,07,20,15,54,23.80
2019,07,20,15,55,23.90
2019,07,20,15,56,23.90
2019,07,20,15,57,23.90
2019,07,20,15,58,24.00
2019,07,20,15,59,24.00
2019,07,20,16,00,24.10
2019,07,20,16,01,24.10
2019,07,20,16,02,24.10
2019,07,20,16,03,24.10
2019,07,20,16,04,24.10
2019,07,20,16,05,24.10
2019,07,20,16,06,24.10
2019,07,20,16,07,24.00
2019,07,20,16,08,24.00
2019,07,20,16,09,24.00
2019,07,20,16,10,24.10
2019,07,20,16,11,24.10
2019,07,20,16,12,24.00
2019,07,20,16,13,24.00
2019,07,20,16,14,23.90
2019,07,20,16,15,23.90
2019,07,20,16,16,23.90
2019,07,20,16,17,23.90
2019,07,20,16,18,23.80
2019,07,20,16,19,23.80
2019,07,20,16,20,23.90
2019,07,20,16,21,23.90
2019,07,20,16,22,23.90
2019,07,20,16,23,24.00
2019,07,20,16,24,24.10
2019,07,20,16,25,24.10
2019,07,20,16,26,24.20
2019,07,20,16,27,24.20
2019,07,20,16,28,24.20
2019,07,20,16,29,24.20
2019,07,20,16,30,24.20
2019,07,20,16,31,24.20
2019,07,20,16,32,24.20
2019,07,20,16,33,24.10
2019,07,20,16,34,24.10
2019,07,20,16,35,24.10
2019,07,20,16,36,24.20
2019,07,20,16,37,24.20
2019,07,20,16,38,24.20
2019,07,20,16,39,24.30
2019,07,20,16,40,24.30
2019,07,20,16,41,24.30
2019,07,20,16,42,24.20
2019,07,20,16,43,24.20
2019,07,20,16,44,24.10
2019,07,20,16,45,24.20
2019,07,20,16,46,24.20
2019,07,20,16,47,24.20
2019,07,20,16,48,24.20
2019,07,20,16,49,24.30
2019,07,20,16,50,24.30
2019,07,20,16,51,24.40
2019,07,20,16,52,24.40
2019,07,20,16,53,24.50
2019,07,20,16,54,24.50
2019,07,20,16,55,24.60
2019,07,20,16,56,24.60
2019,07,20,16,57,24.60
2019,07,20,16,58,24.60
2019,07,20,16,59,24.60
2019,07,20,17,00,24.60
2019,07,20,17,01,24.70
2019,07,20,17,02,24.70
2019,07,20,17,03,24.80
2019,07,20,17,04,24.80
2019,07,20,17,05,24.80
2019,07,20,17,06,24.80
2019,07,20,17,07,24.80
2019,07,20,17,08,24.80
2019,07,20,17,09,24.80
2019,07,20,17,10,24.80
2019,07,20,17,11,24.80
2019,07,20,17,12,24.80
2019,07,20,17,13,24.70
2019,07,20,17,14,24.70
2019,07,20,17,15,24.70
2019,07,20,17,16,24.70
2019,07,20,17,17,24.70
2019,07,20,17,18,24.70
2019,07,20,17,19,24.80